{"data":{"norad_id":69822,"epoch":"2026-09-20T04:56:38.513184Z","epoch_age_seconds":43155,"freshness":"FRESH","line1":"1 69822U 26154D   26263.20600131  .00006523  00000+0  20398-3 0  9997","line2":"2 69822  53.1615 333.0563 0000963  74.9270 285.1839 15.34404844 13197","mean_motion":15.34404844,"eccentricity":9.63e-5,"inclination_deg":53.1615,"raan_deg":333.0563,"arg_perigee_deg":74.927,"mean_anomaly_deg":285.1839,"bstar":0.00020398,"rev_number":1319,"period_min":93.847461811063,"perigee_km":462.03007132749,"apogee_km":463.34761438482,"semimajor_km":6840.8258428562,"source":"CELESTRAK","updated_at":"2026-09-20T09:00:44.291686Z"}}